NULL Weather Reports


time (UTC)temp
F
wind
direction
speed
knots
gust
knots
rain 1hr
in
rain 24hr
in
rain mn
in
humidity
%
barometer
mb
20260502200050 69 154 0.0 0.0 0.00 0.00 0.00 77 1012.4
20260502194557 62 242 4.3 11.3 0.00 0.00 0.00 31 1021.6
20260502194551 67 142 0.0 0.0 0.00 0.00 0.00 81 1012.6
20260502193056 61 107 1.7 5.2 0.00 0.00 0.00 32 1021.7
20260502191559 60 268 2.6 13.0 0.00 0.00 0.00 33 1021.9
20260502191548 65 139 0.0 0.0 0.00 0.00 0.00 84 1013.4
20260502190052 59 55 4.3 7.8 0.00 0.00 0.00 35 1022.0
20260502190038 64 145 0.0 0.0 0.00 0.00 0.00 84 1013.5
20260502184552 59 347 6.1 10.4 0.00 0.00 0.00 34 1022.1
20260502184536 64 149 0.0 0.0 0.00 0.00 0.00 86 1013.7
20260502183051 60 322 0.9 6.1 0.00 0.00 0.00 34 1022.4
20260502183035 63 156 0.0 0.0 0.00 0.00 0.00 86 1013.8
20260502181548 59 349 5.2 9.6 0.00 0.00 0.00 34 1022.7
20260502181532 63 157 0.0 0.0 0.00 0.00 0.00 87 1013.6
20260502163047 56 35 0.9 9.6 0.00 0.00 0.00 35 1023.5
20260502163035 61 156 0.0 0.0 0.00 0.00 0.00 91 1014.4
20260502161554 57 297 2.6 7.8 0.00 0.00 0.00 37 1023.5
20260502161527 61 164 0.0 0.0 0.00 0.00 0.00 91 1014.3
20260502151527 54 354 2.6 7.8 0.00 0.00 0.00 47 1023.6
20260502151521 60 170 0.0 0.0 0.00 0.00 0.00 92 1014.1
20260502123009 60 179 0.0 0.0 0.00 0.00 0.00 89 1013.3
20260502121509 60 182 0.0 0.0 0.00 0.00 0.00 89 1013.0
20260502121506 39 320 1.7 4.3 0.00 0.00 0.00 78 1022.9
20260502114507 60 182 0.0 0.0 0.00 0.00 0.00 89 1012.8
20260502114504 37 359 0.0 0.9 0.00 0.00 0.00 83 1022.6
20260502113006 60 182 0.0 0.0 0.00 0.00 0.00 89 1012.7
20260502113001 37 359 0.0 0.0 0.00 0.00 0.00 82 1022.3
20260502111558 37 359 0.0 0.0 0.00 0.00 0.00 82 1022.1
20260502111505 60 192 0.0 0.0 0.00 0.00 0.00 89 1012.8
20260502110058 37 359 0.0 0.9 0.00 0.00 0.00 82 1022.0
20260502110005 60 197 0.0 0.0 0.00 0.00 0.00 89 1012.8
20260502104556 38 359 0.0 0.0 0.00 0.00 0.00 81 1022.0
20260502104504 60 197 0.0 0.0 0.00 0.00 0.00 89 1012.6
20260502103054 38 359 0.0 0.0 0.00 0.00 0.00 81 1021.8
20260502103010 60 197 0.0 0.0 0.00 0.00 0.00 89 1012.6
20260502101553 38 335 0.0 0.0 0.00 0.00 0.00 80 1021.8
20260502101502 60 197 0.0 0.0 0.00 0.00 0.00 89 1012.4
20260502071527 44 332 0.0 0.9 0.00 0.00 0.00 64 1021.2
20260502070043 61 197 0.0 0.0 0.00 0.00 0.00 87 1013.4
20260502070023 46 332 0.0 3.5 0.00 0.00 0.00 56 1021.4
20260502064544 61 197 0.0 0.0 0.00 0.00 0.00 87 1013.4
20260502064521 46 305 0.9 4.3 0.00 0.00 0.00 53 1021.4
20260502063053 61 197 0.0 0.0 0.00 0.00 0.00 86 1013.2
20260502063021 47 281 1.7 4.3 0.00 0.00 0.00 54 1021.4
20260502061542 62 197 0.0 0.0 0.00 0.00 0.00 86 1013.3
20260502061520 46 310 1.7 3.5 0.00 0.00 0.00 55 1021.4
20260502060043 62 197 0.0 0.0 0.00 0.00 0.00 86 1013.2
20260502060019 46 303 0.9 2.6 0.00 0.00 0.00 57 1021.4
20260502054540 62 197 0.0 0.0 0.00 0.00 0.00 86 1013.3
20260502054513 48 335 0.0 1.7 0.00 0.00 0.00 54 1021.4
20260502053042 62 197 0.0 0.0 0.00 0.00 0.00 85 1013.4
20260502053010 48 33 0.0 2.6 0.00 0.00 0.00 51 1021.3
20260502051539 62 197 0.0 0.0 0.00 0.00 0.00 85 1013.4
20260502051508 49 337 0.0 4.3 0.00 0.00 0.00 51 1021.3
20260502050039 63 197 0.0 0.0 0.00 0.00 0.00 84 1013.4
20260502050004 50 330 1.7 5.2 0.00 0.00 0.00 48 1021.3
20260502044537 63 197 0.0 0.0 0.00 0.00 0.00 84 1013.3
20260502044505 50 347 0.9 4.3 0.00 0.00 0.00 48 1021.2
20260502043038 63 197 0.0 0.0 0.00 0.00 0.00 84 1013.2
20260502043004 51 337 1.7 4.3 0.00 0.00 0.00 47 1021.0
20260502041538 63 197 0.0 0.0 0.00 0.00 0.00 84 1013.0
20260502041503 51 326 2.6 7.0 0.00 0.00 0.00 46 1021.1
20260502040037 64 197 0.0 0.0 0.00 0.00 0.00 83 1012.6
20260502040003 52 343 2.6 5.2 0.00 0.00 0.00 45 1021.0
20260502034536 64 197 0.0 0.0 0.00 0.00 0.00 81 1012.5
20260502034503 52 324 4.3 7.8 0.00 0.00 0.00 45 1020.9
20260502033043 65 197 0.0 0.0 0.00 0.00 0.00 80 1012.3
20260502033001 53 325 1.7 3.5 0.00 0.00 0.00 45 1020.7
20260502031535 65 195 0.0 0.0 0.00 0.00 0.00 79 1012.1
20260502031501 54 316 0.9 3.5 0.00 0.00 0.00 43 1020.5
20260502030035 66 195 0.0 0.0 0.00 0.00 0.00 78 1012.1
20260502030002 54 20 2.6 7.0 0.00 0.00 0.00 42 1020.4
20260502024536 67 189 0.0 0.0 0.00 0.00 0.00 77 1011.8
20260502024502 55 337 2.6 5.2 0.00 0.00 0.00 43 1020.0
20260502023100 55 354 3.5 7.8 0.00 0.00 0.00 41 1019.6
20260502023035 67 153 0.0 0.0 0.00 0.00 0.00 78 1011.6
20260502021601 56 343 2.6 7.0 0.00 0.00 0.00 43 1019.5
20260502021535 68 153 0.0 0.0 0.00 0.00 0.00 77 1011.5
20260502020059 56 354 1.7 4.3 0.00 0.00 0.00 44 1019.2
20260502020033 68 144 0.0 0.0 0.00 0.00 0.00 76 1011.2
20260502014600 57 359 1.7 4.3 0.00 0.00 0.00 43 1019.1
20260502014535 68 130 0.0 0.0 0.00 0.00 0.00 74 1011.1
20260502013058 58 325 3.5 7.8 0.00 0.00 0.00 41 1018.7
20260502013032 69 156 0.0 0.0 0.00 0.00 0.00 72 1011.0
20260502011559 59 345 3.5 8.7 0.00 0.00 0.00 40 1018.5
20260502011531 69 122 0.0 0.0 0.00 0.00 0.00 72 1010.9
20260502010057 59 326 2.6 10.4 0.00 0.00 0.00 39 1018.3
20260502010042 69 171 0.0 0.0 0.00 0.00 0.00 72 1011.0
20260502004559 60 291 6.1 13.0 0.00 0.00 0.00 39 1018.1
20260502004547 69 155 0.0 0.0 0.00 0.00 0.00 72 1010.9
20260502003056 60 343 5.2 11.3 0.00 0.00 0.00 38 1017.8
20260502003029 69 160 0.0 0.0 0.00 0.00 0.00 72 1011.0
20260502001558 61 337 6.1 14.8 0.00 0.00 0.00 37 1017.7
20260502001533 70 142 0.0 0.0 0.00 0.00 0.00 71 1011.0
20260502000100 61 342 5.2 13.0 0.00 0.00 0.00 37 1017.7
20260502000030 70 178 0.0 0.0 0.00 0.00 0.00 70 1011.2
20260501234559 62 316 4.3 13.9 0.00 0.00 0.00 36 1017.6
20260501234526 70 168 0.0 0.0 0.00 0.00 0.00 70 1011.3
20260501233055 62 343 7.0 13.0 0.00 0.00 0.00 35 1017.5
20260501233026 71 152 0.0 0.0 0.00 0.00 0.00 68 1011.2
20260501231556 62 15 7.0 13.9 0.00 0.00 0.00 35 1017.5
20260501231524 72 214 0.0 0.0 0.00 0.00 0.00 68 1011.2
20260501230100 62 20 7.8 13.9 0.00 0.00 0.00 34 1017.4
20260501230023 72 169 0.0 0.0 0.00 0.00 0.00 68 1011.3
20260501224553 62 345 9.6 15.6 0.00 0.00 0.00 35 1017.4
20260501224520 73 136 0.0 0.0 0.00 0.00 0.00 66 1011.6
20260501223051 63 342 7.8 14.8 0.00 0.00 0.00 34 1017.5
20260501223022 73 195 0.0 0.0 0.00 0.00 0.00 66 1011.7
20260501221556 64 330 8.7 13.9 0.00 0.00 0.00 32 1017.5
20260501221517 74 143 0.0 0.0 0.00 0.00 0.00 65 1011.6
20260501220049 64 331 7.0 14.8 0.00 0.00 0.00 32 1017.5
20260501220016 73 134 0.0 0.0 0.00 0.00 0.00 65 1012.0
20260501214552 63 299 6.1 13.0 0.00 0.00 0.00 34 1017.7
20260501214515 74 167 0.0 0.0 0.00 0.00 0.00 64 1012.3
20260501213050 63 349 5.2 15.6 0.00 0.00 0.00 33 1017.9
20260501213025 74 161 0.0 0.0 0.00 0.00 0.00 65 1012.4
20260501211545 64 354 7.0 13.9 0.00 0.00 0.00 32 1018.2
20260501211508 73 154 0.0 0.0 0.00 0.00 0.00 66 1012.4
20260501210044 63 307 1.7 16.5 0.00 0.00 0.00 31 1018.3
20260501210015 72 144 0.0 0.0 0.00 0.00 0.00 67 1012.5
20260501204541 64 303 7.8 13.9 0.00 0.00 0.00 33 1018.6
20260501204505 73 153 0.0 0.9 0.00 0.00 0.00 65 1012.6
20260501203042 63 278 5.2 16.5 0.00 0.00 0.00 33 1018.8
20260501203003 74 127 0.0 0.9 0.00 0.00 0.00 65 1012.5
20260501201602 73 77 0.0 0.0 0.00 0.00 0.00 64 1012.6
20260501201537 61 278 2.6 12.2 0.00 0.00 0.00 39 1018.9